[Iaude] MPEC C138: 2024 CB3 [a=1.68,e=0.33,i=6.6,H=25.0]

mpec at cfa.harvard.edu mpec at cfa.harvard.edu
Tue Feb 13 01:18:30 EST 2024


M.P.E.C. 2024-C138                            Issued 2024 February 13, 06:16 UT

     The Minor Planet Electronic Circulars contain information on unusual
         minor planets, routine data on comets and natural satellites,
         and occasional editorial announcements.  They are published
    on behalf of Division F of the International Astronomical Union by the
          Minor Planet Center, Smithsonian Astrophysical Observatory,
                          Cambridge, MA 02138, U.S.A.
			  
             Prepared using the Tamkin Foundation Computer Network

                              MPC at CFA.HARVARD.EDU
            URL https://www.minorplanetcenter.net/    ISSN 1523-6714

                                    2024 CB3                                    


Observations:
     K24C03B* C2024 02 08.36992409 20 07.444+23 25 31.80         21.51wXEC138F52
     K24C03B  C2024 02 08.38227209 20 07.341+23 24 54.64         22.14wXEC138F52
     K24C03B  C2024 02 08.39467809 20 07.221+23 24 17.84         21.64wXEC138F52
     K24C03B  C2024 02 08.45795609 20 06.569+23 21 06.30         21.99GVEC138F52
     K24C03B  C2024 02 08.45928109 20 06.554+23 21 01.88         21.74GVEC138F52
     K24C03B  C2024 02 08.45993009 20 06.583+23 21 00.25         22.55GVEC138F52
     K24C03B  C2024 02 08.46057609 20 06.529+23 20 57.97         21.90GVEC138F52
     K24C03B  C2024 02 08.46122209 20 06.512+23 20 56.31         21.07GVEC138F52
     K24C03B  C2024 02 09.37838409 20 19.694+22 34 42.62         22.08GVEC138F52
     K24C03B  C2024 02 09.37920309 20 19.688+22 34 40.62         21.67GVEC138F52
     K24C03B  C2024 02 13.22801009 21 08.755+19 26 10.15         22.0 GVEC138H01
     K24C03B  C2024 02 13.23241709 21 08.739+19 25 57.54         21.4 GVEC138H01
     K24C03B  C2024 02 13.24340709 21 08.685+19 25 26.54         21.6 GVEC138H01
     K24C03B  C2024 02 13.24882509 21 08.669+19 25 11.29         21.5 GVEC138H01

Observer details:
F52 Pan-STARRS 2, Haleakala.  Observers J. Herman, T. Lowe, P. Minguez, A.
    Schultz, I. Smith.  Measurers K. Chambers, T. de Boer, J. Fairlamb, H.
    Gao, M. Huber, C.-C. Lin, E. Magnier, Y. Ramanjooloo, R. Wainscoat, R.
    Weryk.  1.8-m Ritchey-Chretien + CCD.
H01 Magdalena Ridge Observatory, Socorro.  Observers W. H. Ryan, E. V. Ryan.
    Measurer W. H. Ryan.  2.4-m f/8.9 Ritchey-Chretien + CCD.

Orbital elements:
2024 CB3                                                 Earth MOID = 0.1545 AU
Epoch 2023 Sept. 13.0 TT = JDT 2460200.5                MPC                     
M 302.81390              (2000.0)            P               Q                  
n   0.45163230     Peri.  150.43477     -0.46907761     -0.88096010             
a   1.6824651      Node   327.42414     +0.78589496     -0.38422136             
e   0.3277096      Incl.    6.63959     +0.40290857     -0.27619423             
P   2.18           H   25.08          G   0.15           U   9                  
Residuals in seconds of arc
240208 F52  0.0   0.0     240208 F52  0.5+  0.1+    240213 H01  0.0   0.1+
240208 F52  0.1+  0.2-    240208 F52  0.2-  0.2-    240213 H01  0.0   0.1-
240208 F52  0.0   0.2+    240208 F52  0.3-  0.1+    240213 H01  0.1-  0.0
240208 F52  0.0   0.2+    240209 F52  0.0   0.2-    240213 H01  0.0   0.0
240208 F52  0.0   0.2-    240209 F52  0.0   0.2+

Ephemeris:
2024 CB3                 a,e,i = 1.68, 0.33, 7                   q = 1.1311
Date    TT    R. A. (2000) Decl.     Delta      r    Elong.  Phase     V
2024 01 14    09 05 20.7 +43 27 15   0.1651  1.1316   151.7    24.4    22.6
...
2024 01 29    09 17 09.0 +32 19 42   0.1564  1.1359   163.9    13.9    22.1
...
2024 02 06    09 19 35.3 +25 26 41   0.1610  1.1451   170.4     8.2    22.0
...
2024 02 12    09 20 51.3 +20 25 24   0.1692  1.1549   172.3     6.6    22.0
2024 02 13    09 21 04.5 +19 37 18   0.1710  1.1568   172.1     6.7    22.1
2024 02 14    09 21 18.3 +18 49 58   0.1729  1.1587   171.8     7.0    22.1
...
2024 02 20    09 23 00.0 +14 24 52   0.1865  1.1717   168.1    10.0    22.4
...
2024 02 28    09 26 24.4 +09 29 04   0.2109  1.1924   161.6    15.2    22.9
...
2024 03 14    09 37 09.0 +03 06 21   0.2746  1.2401   150.2    23.5    23.8

A. U. Tomatic                (C) Copyright 2024 MPC           M.P.E.C. 2024-C138





More information about the Iaude mailing list